Theta_e
292 292 291 291 292 292 292 292 292 293 294 294 295 295 295 296 295 293 292 291 290 289 289 288 287 288 287 287 288 289 291 291 285 283 284 282 279 278 279 279 279 279 278
290 290 290 290 289 289 289 290 290 290 291 291 291 290 290 290 290 289 288 288 287 286 286 285 285 285 284 284 284 283 283 285 284 279 278 277 277 278 278 277 279 280 278
289 289 288 288 288 287 287 288 288 288 288 288 289 288 288 288 287 287 286 285 285 284 284 283 283 283 281 281 279 279 279 281 280 279 276 277 277 276 277 277 277 277 278
288 288 287 287 287 287 287 287 287 287 287 287 287 287 287 287 286 285 285 284 283 283 282 282 280 279 279 278 279 278 279 278 278 277 276 276 275 277 276 274 274 275 275
286 285 285 285 285 285 286 286 286 285 285 286 286 286 286 286 285 283 283 282 281 280 280 281 281 281 285 282 279 278 278 278 277 276 275 275 274 274 273 274 274 273 274
283 282 283 283 283 283 284 284 284 284 285 284 284 284 284 285 286 285 283 281 279 279 278 278 278 279 283 284 285 284 281 277 277 276 275 274 273 274 274 273 272 271 269
281 281 281 281 281 281 282 282 282 282 283 282 282 283 283 284 285 284 282 279 278 277 277 277 277 278 278 278 280 280 280 282 280 276 274 274 273 273 274 273 272 271 271
280 280 281 281 280 280 280 280 280 280 280 280 280 280 281 282 285 283 282 279 278 278 278 278 278 277 278 277 277 276 276 276 276 276 275 274 274 275 274 273 272 270 269
280 280 280 280 280 280 279 278 279 279 279 279 279 279 280 281 284 283 281 279 279 278 278 278 278 278 281 280 277 276 275 275 279 279 278 277 277 276 276 271 263 262 261
279 279 280 280 280 279 279 278 279 279 279 279 279 278 278 279 284 283 280 279 277 278 278 278 280 278 280 279 276 276 273 274 274 273 273 274 274 274 275 272 270 261 261
279 279 279 279 279 278 278 278 278 278 278 277 277 277 277 278 280 283 282 279 278 278 278 277 278 281 280 279 278 276 275 274 271 269 269 269 270 271 271 271 271 268 261
277 276 276 276 278 278 276 276 276 276 275 274 274 274 275 277 280 281 282 281 280 278 277 276 276 280 279 279 276 278 277 272 264 262 263 265 267 268 269 268 267 266 268
273 272 271 273 276 276 274 275 274 274 274 273 274 273 273 276 277 281 281 281 280 277 277 278 279 280 279 277 278 278 272 266 264 262 263 266 267 267 264 262 262 260 261
269 269 269 271 271 272 277 275 273 273 272 274 273 273 271 273 274 274 276 276 278 276 277 274 276 276 277 276 271 273 270 268 266 265 264 264 262 260 260 261 260 260 258
271 270 270 270 272 271 272 272 274 273 275 272 272 273 271 272 274 277 276 273 270 274 265 264 266 267 266 266 266 266 267 265 264 263 261 261 262 262 262 260 259 256 258
271 271 272 272 275 275 275 275 279 281 281 282 282 278 277 278 280 281 281 281 281 280 264 262 264 267 267 268 267 267 264 265 266 265 262 261 263 263 261 259 259 256 258
272 272 271 272 273 275 274 274 274 276 280 282 282 282 282 281 280 281 281 281 281 281 267 264 266 268 269 268 268 266 266 266 263 262 263 263 263 261 259 259 258 257 260
268 269 271 272 271 275 275 275 274 273 271 268 275 280 281 282 282 282 281 279 267 270 262 266 267 267 268 268 268 265 266 264 261 263 263 261 260 257 256 258 258 257 260
268 268 269 268 268 274 274 274 273 271 266 264 262 271 269 279 281 282 282 276 271 269 267 266 266 267 267 266 267 266 265 265 264 261 259 259 259 255 257 258 260 259 255
266 267 267 268 266 265 265 265 264 265 262 263 262 265 261 263 262 263 262 260 259 264 261 264 263 263 265 265 266 265 264 262 263 262 261 260 259 257 259 259 256 258 255
264 264 266 263 266 266 265 265 266 267 264 264 265 262 271 262 265 264 264 262 262 263 264 263 263 262 262 262 263 264 266 266 262 262 259 259 256 255 257 259 260 254 256
262 263 262 265 264 264 264 264 264 263 263 263 263 260 274 265 262 264 263 262 263 262 262 261 261 261 262 261 261 260 260 261 259 258 259 258 256 256 256 255 255 255 253
260 260 260 259 260 262 261 260 260 260 260 259 259 261 258 260 262 262 262 262 260 260 259 256 258 260 259 259 258 259 260 261 260 258 258 258 257 258 256 256 255 253 252
257 258 260 259 258 259 259 258 258 259 259 259 257 259 259 260 260 260 260 260 258 258 257 256 257 258 259 258 256 256 257 259 256 257 257 258 261 259 257 257 258 256 255
255 256 257 259 258 259 258 258 258 256 256 257 258 255 255 255 256 257 258 256 256 255 257 256 255 255 257 257 257 256 255 260 258 256 256 257 260 261 260 257 258 255 252
255 255 256 256 257 256 257 257 256 256 256 256 255 254 254 256 256 255 256 255 256 256 256 256 256 256 256 256 256 258 258 262 260 258 259 261 261 261 260 259 257 255 255
Wind_Speed
9 7 10 7 8 7 7 7 7 7 6 6 8 7 6 7 7 7 6 7 8 7 6 7 7 6 4 4 4 3 4 3 4 2 2 3 3 2 3 3 3 3 4
6 9 8 6 4 6 6 5 7 7 5 8 7 7 7 8 7 7 7 6 7 8 6 7 6 5 6 4 3 5 4 3 4 4 1 2 3 2 1 2 2 2 4
5 6 5 6 5 6 6 6 5 7 7 8 7 7 8 7 8 7 8 8 8 7 6 7 5 5 5 4 5 5 4 4 4 4 3 1 2 2 2 2 2 4 4
5 6 5 5 6 4 6 6 4 6 9 10 6 7 7 7 7 7 8 9 8 9 8 7 6 6 5 6 5 5 5 5 5 4 4 2 2 2 3 2 4 2 3
6 6 4 4 5 4 7 6 6 10 8 6 7 8 7 6 5 7 8 8 9 9 8 8 7 8 13 9 4 4 5 4 4 4 3 2 2 3 2 2 3 4 2
5 5 4 7 7 7 7 7 9 8 7 7 8 8 8 6 13 13 9 8 7 7 7 6 7 7 10 15 16 16 10 3 3 2 1 2 2 1 2 2 2 3 4
5 5 7 7 8 7 7 7 7 7 6 7 7 7 8 8 13 14 11 6 6 5 5 5 5 3 4 5 10 13 12 13 10 2 3 2 1 1 2 2 2 1 3
6 6 6 7 7 6 6 6 6 5 6 5 6 6 7 7 12 12 12 7 6 5 5 4 4 4 4 4 4 5 5 5 6 5 4 2 2 1 0 1 1 3 4
5 5 4 5 6 5 6 6 5 5 6 5 5 6 6 5 10 10 7 5 5 4 4 4 4 5 5 5 3 3 4 4 5 5 3 2 1 1 1 2 2 3 3
4 4 4 4 6 6 5 5 3 4 4 4 5 5 5 4 7 7 5 3 4 2 3 3 5 4 5 6 4 3 1 2 3 3 2 2 3 3 2 1 1 2 1
5 4 4 4 4 5 4 3 4 4 5 4 4 2 2 2 3 5 5 2 2 2 1 1 0 3 3 4 4 2 0 1 2 1 2 2 2 2 2 1 3 3 3
4 3 3 2 3 3 4 2 3 4 4 2 2 1 1 0 1 2 3 3 5 3 3 2 2 3 2 1 1 3 3 2 1 2 2 2 2 2 2 2 3 3 4
3 3 3 3 3 3 4 3 2 3 3 3 2 1 1 2 2 3 3 3 2 1 1 5 6 5 4 3 4 7 1 0 0 1 2 2 2 2 3 3 3 3 5
3 1 1 2 2 1 0 1 1 1 1 2 3 3 2 2 2 2 2 1 3 1 2 1 2 3 4 5 2 4 1 2 3 3 3 2 2 2 2 1 2 3 3
4 4 2 2 4 3 2 3 3 2 3 3 3 3 3 4 4 9 7 3 2 4 2 2 2 1 2 3 3 3 3 2 3 2 2 3 3 1 2 1 1 1 1
4 4 5 4 3 3 3 2 6 10 9 11 9 6 3 9 7 7 9 10 10 9 2 1 2 3 4 4 4 4 2 4 4 3 2 3 4 3 2 2 2 2 3
6 5 3 3 4 4 3 3 4 3 10 11 12 12 12 9 9 10 9 10 12 11 4 4 4 5 5 5 5 4 4 4 2 2 3 4 4 3 2 2 2 2 4
4 5 4 4 3 4 5 4 3 3 3 3 6 10 11 12 12 12 11 8 3 5 2 4 5 4 5 6 5 4 4 3 3 4 4 4 4 3 2 3 2 3 5
5 4 4 3 3 4 3 3 4 4 4 4 3 4 4 9 11 13 14 6 6 6 4 5 5 5 5 5 5 5 5 5 4 3 3 4 4 3 4 4 4 5 4
5 6 5 4 3 3 3 3 2 3 2 4 4 5 2 2 1 3 2 1 2 4 3 4 4 4 5 5 5 5 4 3 5 4 4 4 4 4 5 5 3 5 4
3 3 5 3 4 4 4 5 4 4 4 4 5 3 8 4 5 4 4 4 5 5 5 5 4 4 4 4 4 4 5 5 4 4 4 4 3 3 5 5 5 3 4
3 3 3 4 3 4 4 3 3 3 4 4 4 3 11 2 3 4 4 5 5 5 4 4 4 4 5 4 5 4 5 5 4 4 5 4 4 4 4 3 4 4 4
2 2 2 2 2 2 2 2 2 2 3 3 3 4 2 4 4 4 5 5 4 4 4 3 4 5 4 5 4 5 5 6 5 4 5 4 4 4 4 4 4 3 3
2 2 2 2 1 2 2 3 3 4 3 3 3 3 4 4 4 5 5 4 4 4 4 4 4 6 5 5 4 4 4 5 3 5 7 5 7 4 3 4 5 5 4
2 2 2 2 2 3 2 3 3 3 3 3 3 3 3 3 4 5 4 4 4 3 5 4 3 5 8 8 8 7 7 10 7 5 4 6 8 8 6 4 5 3 4
2 2 1 1 1 1 2 2 3 2 3 3 3 3 3 4 4 4 4 4 4 4 5 4 5 8 9 7 8 10 9 11 9 8 6 6 7 6 5 6 6 4 5
Wind_Direction
65 58 61 43 46 55 69 68 55 51 46 64 65 69 72 75 63 81 76 89 83 80 71 73 62 50 41 27 11 26 37 50 100 88 79 50 69 54 22 6 10 21 341
51 56 62 53 66 83 75 77 73 58 65 79 75 77 76 72 70 78 86 75 84 78 73 79 67 69 56 38 39 47 50 44 115 125 113 59 66 18 357 5 343 346 336
54 78 80 71 53 55 63 60 75 94 67 70 68 68 73 75 80 76 87 82 73 72 65 67 63 74 61 39 41 47 37 42 55 110 115 74 66 16 352 340 335 318 318
80 81 75 80 77 70 73 69 71 94 78 67 61 68 69 77 80 78 84 82 82 67 61 60 51 52 64 55 49 48 48 61 62 80 79 91 68 17 49 2 326 309 317
88 94 96 86 85 80 74 79 80 63 67 77 81 73 70 71 74 79 81 85 83 78 58 59 55 56 68 66 64 44 60 64 65 65 83 88 41 26 22 330 295 310 309
91 84 81 71 64 60 66 60 61 68 67 71 65 76 78 85 99 99 92 92 86 88 88 66 52 41 63 68 66 63 61 55 66 88 82 94 91 33 344 329 314 358 328
93 69 66 66 62 50 48 52 60 64 70 70 72 77 76 78 94 95 96 91 89 84 81 81 75 67 62 62 64 62 50 55 59 72 87 62 90 22 298 341 325 288 270
78 77 72 75 72 65 64 59 54 59 61 59 63 67 80 85 96 97 90 76 76 74 81 89 92 82 76 78 75 71 59 52 46 47 59 86 114 176 32 293 303 309 303
82 86 89 100 94 88 80 76 63 69 65 54 48 58 67 76 100 102 91 89 96 85 80 73 75 67 68 75 82 73 59 51 42 41 70 70 35 337 49 68 6 47 323
102 103 104 107 109 106 109 103 80 86 96 81 71 62 72 88 114 118 119 106 108 110 111 104 104 94 70 58 52 42 47 356 3 357 349 344 322 302 329 140 146 119 234
106 103 102 102 107 113 112 104 120 107 96 95 105 94 99 96 110 135 151 168 155 149 149 164 263 124 77 49 67 67 348 50 346 345 305 299 302 302 284 252 202 163 172
120 105 106 110 126 128 118 76 87 113 121 127 120 85 334 27 165 173 183 174 179 164 202 199 218 219 206 246 63 310 286 81 61 3 347 314 307 297 270 252 247 244 239
117 138 142 123 113 121 133 149 131 141 146 154 144 155 277 311 310 209 198 195 193 196 193 208 221 232 248 291 285 290 242 193 349 345 280 266 233 260 297 297 287 263 250
133 167 167 148 138 132 152 119 108 154 179 192 193 205 210 239 252 261 253 252 245 191 249 303 239 226 249 262 284 284 251 212 210 229 248 244 316 327 297 241 278 320 342
170 172 200 193 193 190 197 182 194 232 191 194 228 195 187 228 231 223 214 218 218 228 106 32 15 355 290 286 280 263 263 248 239 226 240 265 267 230 264 224 245 347 181
191 197 197 180 206 200 196 235 249 243 243 244 240 212 228 238 254 240 237 239 238 235 55 181 234 229 238 243 252 262 247 244 238 227 236 237 261 261 256 262 218 191 266
208 196 186 189 183 191 186 198 237 250 256 248 248 250 248 243 250 256 253 255 254 244 200 218 227 223 244 242 244 232 248 235 207 224 231 245 248 254 246 266 242 229 278
212 208 193 199 190 201 202 203 196 223 243 272 266 256 259 257 255 249 246 256 308 281 211 230 240 236 241 245 249 238 250 255 239 240 240 238 245 226 268 265 232 238 273
209 220 212 202 211 211 192 202 206 218 227 244 317 287 311 274 267 260 254 236 225 236 234 241 236 243 243 241 247 248 236 245 234 227 236 232 243 199 257 242 256 253 235
215 210 191 201 201 208 208 208 221 229 224 238 242 244 289 34 314 262 258 261 252 256 253 248 249 241 243 242 252 248 250 241 250 241 242 237 237 205 246 255 228 257 243
202 198 197 189 202 202 199 208 213 217 229 234 244 213 240 202 246 238 250 244 243 251 250 242 249 250 249 252 261 258 254 256 239 245 241 242 224 232 224 238 253 230 246
202 204 194 209 196 206 216 202 205 208 226 239 264 279 285 278 251 251 247 247 244 237 239 240 253 243 242 236 240 242 246 249 243 243 248 240 229 234 232 229 238 242 243
211 216 227 241 216 212 233 223 216 218 235 238 247 271 266 260 262 262 261 262 256 260 248 232 245 263 244 237 224 226 236 250 235 213 241 246 239 234 210 240 234 243 227
171 202 214 231 215 225 224 241 239 236 244 252 256 257 257 257 261 264 267 269 270 268 257 252 244 251 267 263 246 237 238 253 230 230 227 241 259 248 212 228 237 237 244
134 158 173 204 214 227 243 247 244 245 245 243 263 258 268 268 274 271 270 268 272 275 278 268 255 261 272 278 280 268 254 267 258 228 220 228 247 250 238 227 240 226 224
128 138 164 155 192 210 225 263 271 280 277 280 273 272 267 278 276 282 289 298 296 292 289 285 282 285 287 278 273 275 267 267 256 238 231 236 240 245 234 233 232 220 235